Wind_Speed
8 8 8 8 9 9 10 10 10 10 10 11 11 10 11 11 11 12 12 12 12 11 11 12 12 11 11 11 12 12 12 12 12 12 11 11 11 11 11 11 11 11 11 11
9 9 9 10 10 10 10 11 11 11 12 12 11 11 12 12 12 13 13 13 13 13 12 12 12 12 11 12 12 12 12 12 12 12 11 11 11 11 11 11 10 11 11 12
10 10 10 11 11 11 11 11 11 12 12 12 13 12 12 12 13 13 13 13 13 13 13 13 13 13 12 12 13 13 13 12 12 12 12 11 11 11 11 11 11 11 11 11
12 11 11 12 12 12 12 12 12 12 13 12 13 14 13 13 14 13 13 14 13 14 14 13 13 13 13 13 13 13 13 13 13 13 12 12 12 11 11 11 11 10 10 10
13 12 12 12 12 12 12 12 12 12 12 12 13 15 14 14 15 15 14 14 14 14 14 14 13 14 14 13 13 13 13 13 13 13 12 12 12 11 11 11 11 10 10 10
13 13 13 13 13 12 12 11 11 11 11 13 13 15 16 14 15 16 15 15 15 15 15 15 14 15 14 14 14 14 13 13 13 12 12 13 12 11 11 11 11 10 9 9
14 13 14 14 13 12 12 11 11 11 12 13 13 15 16 15 16 16 16 16 15 15 16 15 15 15 15 14 14 14 13 14 14 13 13 13 12 12 12 11 11 10 9 9
14 15 14 14 14 13 13 12 12 12 12 13 14 16 16 17 17 17 17 17 16 16 16 16 16 15 15 15 14 14 14 14 14 14 14 13 12 12 12 11 11 11 10 9
15 16 15 15 15 15 14 14 14 15 15 15 16 17 18 18 18 18 18 18 18 17 17 17 17 16 16 16 15 15 14 14 14 14 14 14 13 12 12 12 12 12 11 10
16 17 16 15 15 15 15 15 15 16 16 16 16 17 19 18 19 19 19 19 18 17 17 17 17 17 17 16 16 16 15 15 15 15 15 14 14 13 12 12 12 12 12 11
16 16 16 16 15 16 16 16 16 16 17 17 17 18 19 19 19 19 19 19 19 18 18 17 17 16 16 16 16 16 16 16 16 16 15 15 14 14 13 13 12 12 12 12
16 16 16 16 16 16 16 17 17 18 18 19 19 20 19 20 19 19 18 18 18 18 18 17 17 17 17 16 16 16 16 17 17 16 16 16 15 15 15 14 14 13 13 13
17 17 16 17 18 17 17 18 18 18 19 20 20 20 20 21 20 20 20 20 19 18 18 17 17 17 18 17 17 17 17 17 17 17 17 17 16 16 16 15 15 14 14 14
19 19 18 19 19 20 19 19 19 20 19 20 20 20 21 21 21 21 20 20 20 19 19 19 18 18 18 18 18 18 18 17 17 17 18 18 17 17 17 16 16 16 16 15
20 20 20 20 21 22 22 21 21 21 21 21 20 21 22 22 21 22 22 21 21 20 19 19 19 19 19 19 19 18 18 18 18 18 18 18 18 18 18 17 17 17 16 16
21 21 22 22 22 23 24 22 22 23 22 23 23 22 23 23 22 22 22 22 21 20 20 20 19 19 19 19 19 19 18 18 19 19 19 19 18 18 18 18 18 18 18 17
21 22 23 23 23 24 25 22 22 23 22 23 24 23 23 24 23 23 23 22 22 21 21 20 20 20 19 19 19 19 19 19 19 19 19 20 19 19 18 18 19 19 19 19
22 23 24 24 24 26 24 23 23 24 24 24 24 24 25 25 24 25 24 23 23 23 23 22 21 21 21 21 21 21 20 20 20 20 20 20 21 20 20 20 20 20 20 19
23 24 25 25 25 26 26 25 25 25 24 24 25 25 25 26 25 26 25 24 25 24 23 24 23 23 22 22 22 23 23 22 22 22 21 22 22 22 22 21 21 21 20 20
24 25 26 26 27 28 27 27 26 27 27 25 26 26 26 26 27 27 26 26 25 25 25 25 25 25 25 24 25 24 24 24 23 23 23 23 24 24 23 23 22 22 21 21
25 26 27 27 28 29 28 28 27 28 28 27 28 28 27 28 28 28 27 27 27 27 27 27 27 27 27 26 26 26 26 25 25 24 25 25 25 24 24 24 24 24 23 22
27 28 28 28 29 30 29 30 30 29 29 30 29 29 29 29 29 29 28 28 28 28 29 28 29 29 28 28 28 28 27 27 27 27 27 26 27 26 26 26 26 26 25 25
28 29 29 30 30 30 30 31 31 32 31 30 30 29 29 29 30 30 30 30 30 30 31 30 30 30 29 29 29 29 28 28 29 29 29 29 29 28 28 27 27 26 27 26
29 30 31 32 32 33 33 33 32 31 31 31 31 30 30 31 31 32 32 32 32 32 32 32 31 30 29 29 29 29 29 29 30 30 30 30 29 29 29 29 29 28 28 28
31 31 33 34 34 34 34 34 34 33 33 33 33 33 33 33 33 34 33 33 33 33 33 33 33 32 31 31 31 31 31 30 30 30 30 30 30 30 30 30 29 29 29 29
31 33 35 35 35 35 35 35 35 35 34 33 33 33 33 33 33 33 33 33 34 34 34 34 34 34 33 33 33 32 32 32 32 31 31 31 31 31 31 31 31 31 31 31
Wind_Direction
254 255 259 257 260 264 264 262 267 271 273 277 280 283 286 288 289 285 282 281 280 279 279 281 281 281 281 282 283 282 283 284 286 285 285 288 289 289 289 291 290 287 284 284
258 258 257 256 259 264 267 265 266 269 271 276 279 283 288 286 286 286 285 284 281 279 279 279 280 280 282 283 284 282 283 283 283 283 285 286 286 287 288 290 291 287 285 285
260 259 260 259 261 263 267 265 265 267 270 276 280 283 287 286 286 286 284 283 282 281 279 277 278 280 280 280 282 283 281 280 281 281 282 283 286 286 285 285 289 291 291 291
259 258 259 262 264 265 265 268 268 271 272 278 283 287 285 288 289 289 286 283 283 282 282 279 277 277 278 279 281 282 279 279 278 279 280 282 284 283 285 286 289 293 292 293
260 261 262 265 267 266 265 269 272 274 275 279 282 285 284 286 288 287 286 285 283 282 281 278 276 276 277 277 279 281 279 278 276 278 280 283 282 281 283 287 289 290 292 296
262 263 264 265 266 266 265 266 269 274 277 279 279 280 282 284 286 286 286 284 282 280 280 278 276 275 275 275 276 278 277 275 274 278 281 284 282 278 281 286 289 290 292 295
266 266 265 264 265 262 260 263 267 273 279 280 278 278 281 286 286 285 284 282 281 279 277 276 275 274 273 273 274 275 274 274 273 274 278 281 281 277 279 285 289 289 290 290
266 267 267 266 266 263 259 258 260 266 268 277 278 280 284 285 285 283 282 280 279 278 277 276 275 272 273 272 273 274 274 274 273 274 275 278 280 279 279 286 289 287 286 285
264 266 265 264 264 263 260 257 257 257 260 264 268 274 280 283 284 282 281 280 279 278 277 275 274 272 271 271 272 271 272 272 272 272 274 276 277 278 281 285 285 283 283 283
262 264 266 266 266 264 261 260 256 256 259 261 267 272 277 277 282 285 283 281 281 278 275 273 273 272 270 269 270 270 271 270 269 270 273 274 277 277 281 284 284 283 281 281
261 262 262 265 267 269 267 263 260 261 260 260 263 266 274 278 280 282 282 279 280 278 273 272 271 271 269 269 269 269 268 269 269 269 270 273 276 276 275 277 280 280 278 278
258 261 264 266 268 269 269 268 264 263 262 260 263 267 270 275 278 280 281 279 278 278 273 271 270 269 267 267 269 270 269 269 268 267 268 270 271 273 273 274 275 276 275 276
259 259 264 266 265 266 269 269 267 266 264 263 263 266 270 273 276 277 277 278 276 275 272 270 270 269 269 268 267 268 270 270 268 267 267 267 267 269 271 271 271 272 273 274
259 260 261 264 266 269 270 271 272 270 269 268 264 265 267 270 272 275 276 276 276 274 271 270 270 269 268 268 268 268 269 269 267 266 265 265 266 267 269 271 271 273 274 273
261 261 261 263 265 268 269 269 269 270 271 271 268 265 266 270 272 273 274 276 275 273 271 270 270 269 269 268 267 266 266 266 266 264 264 264 265 266 267 270 271 272 274 274
264 263 263 263 265 266 268 269 270 269 271 271 270 267 269 271 271 274 274 275 274 273 272 270 269 269 270 268 268 266 267 267 266 263 262 265 265 265 266 267 269 271 271 272
266 267 266 267 267 269 268 271 271 271 270 271 270 270 268 270 271 273 274 274 273 273 270 269 268 268 268 268 269 268 267 267 266 265 264 264 265 264 265 267 269 271 271 270
268 269 270 271 270 268 271 270 271 271 273 273 272 272 272 272 271 271 271 271 273 272 269 268 267 267 269 268 268 269 268 266 266 264 262 263 263 263 264 266 269 272 271 270
269 270 272 273 272 272 270 271 272 272 272 273 273 273 274 272 270 271 272 271 271 270 269 268 267 267 268 268 268 270 270 269 267 267 265 263 263 264 265 266 267 269 270 270
270 270 271 273 273 274 273 272 273 274 272 272 273 272 273 271 270 271 273 272 271 269 269 269 268 269 269 268 269 270 270 270 269 267 265 264 264 264 266 266 266 268 269 270
269 270 271 273 273 275 274 274 274 274 275 275 275 273 274 271 270 271 272 273 271 271 270 270 269 270 269 268 268 269 269 269 268 267 265 264 264 264 265 266 266 267 267 269
270 271 272 273 272 273 276 276 274 274 273 275 275 275 274 272 271 270 270 271 272 272 271 270 269 269 269 268 268 269 269 269 268 267 266 265 264 263 264 265 266 266 267 268
269 269 270 270 272 274 275 275 274 275 275 275 274 274 273 273 272 270 270 271 270 270 270 269 270 269 268 268 268 268 268 268 268 267 267 266 265 262 262 264 264 266 266 267
268 269 269 270 271 272 273 272 272 273 274 273 272 270 270 271 271 272 271 271 270 270 269 269 268 268 269 269 268 268 268 268 267 267 266 266 265 263 263 264 265 265 266 267
270 269 270 271 273 273 273 273 273 272 272 271 270 271 272 273 273 273 272 272 271 270 269 268 267 267 268 268 267 267 267 267 267 267 266 265 265 264 263 264 264 265 266 267
270 270 271 272 273 273 273 273 273 272 272 270 270 271 272 272 273 273 273 272 271 271 270 269 268 267 267 268 268 267 267 267 267 267 266 265 265 265 263 263 263 264 265 266
Height
5859 5861 5861 5862 5862 5863 5862 5863 5864 5864 5864 5865 5865 5865 5866 5866 5866 5865 5865 5866 5866 5866 5866 5865 5865 5865 5865 5865 5865 5865 5865 5865 5865 5865 5865 5864 5864 5864 5864 5863 5863 5862 5862 5862
5858 5859 5859 5859 5860 5860 5861 5861 5862 5862 5862 5863 5863 5864 5864 5863 5863 5863 5863 5863 5863 5863 5863 5863 5863 5863 5863 5863 5863 5863 5863 5863 5863 5863 5862 5862 5862 5861 5861 5861 5861 5860 5860 5859
5856 5857 5857 5858 5858 5858 5859 5859 5860 5860 5860 5860 5861 5861 5861 5861 5861 5861 5861 5861 5860 5860 5860 5861 5861 5861 5861 5861 5861 5861 5860 5860 5860 5860 5860 5860 5860 5859 5859 5859 5858 5858 5857 5857
5853 5854 5855 5855 5856 5856 5856 5857 5857 5857 5858 5858 5859 5858 5859 5858 5858 5858 5858 5858 5858 5858 5858 5858 5858 5858 5858 5858 5858 5858 5858 5858 5857 5857 5857 5857 5857 5857 5857 5856 5856 5856 5855 5854
5850 5851 5852 5853 5853 5853 5854 5854 5855 5855 5855 5856 5856 5856 5857 5855 5855 5855 5855 5855 5855 5855 5855 5855 5855 5855 5855 5855 5855 5855 5855 5855 5855 5855 5855 5855 5855 5854 5854 5854 5854 5853 5853 5852
5847 5848 5849 5850 5850 5851 5851 5852 5852 5852 5852 5853 5854 5853 5853 5853 5852 5852 5852 5852 5852 5852 5852 5852 5852 5852 5852 5852 5852 5852 5852 5852 5852 5852 5852 5852 5852 5852 5852 5851 5851 5851 5850 5850
5845 5845 5846 5846 5847 5848 5848 5849 5849 5849 5849 5850 5851 5850 5850 5850 5849 5849 5849 5849 5849 5849 5849 5849 5849 5849 5849 5849 5849 5849 5849 5849 5849 5849 5849 5849 5849 5849 5849 5849 5849 5848 5848 5848
5842 5842 5843 5843 5844 5844 5845 5846 5847 5848 5848 5848 5847 5847 5847 5846 5846 5846 5845 5845 5845 5845 5845 5845 5845 5845 5845 5845 5846 5846 5846 5846 5846 5846 5846 5846 5846 5846 5846 5846 5846 5846 5846 5846
5838 5839 5839 5839 5840 5841 5841 5842 5843 5844 5844 5844 5845 5844 5843 5842 5842 5842 5841 5841 5841 5841 5841 5841 5841 5841 5842 5842 5842 5842 5842 5842 5842 5842 5843 5843 5843 5843 5843 5843 5843 5843 5843 5843
5834 5835 5835 5836 5837 5837 5838 5838 5839 5839 5839 5840 5841 5840 5839 5838 5838 5838 5837 5837 5837 5837 5837 5837 5837 5837 5838 5838 5838 5838 5838 5839 5839 5839 5839 5839 5839 5840 5840 5840 5840 5840 5840 5840
5830 5831 5832 5832 5833 5833 5834 5835 5834 5835 5836 5836 5836 5838 5835 5834 5834 5834 5833 5832 5833 5833 5833 5833 5833 5833 5834 5834 5834 5834 5835 5835 5835 5835 5836 5836 5836 5836 5836 5837 5837 5837 5837 5837
5826 5827 5827 5829 5829 5829 5829 5830 5830 5831 5831 5831 5831 5834 5831 5830 5830 5829 5829 5828 5828 5828 5828 5828 5829 5829 5829 5830 5830 5830 5830 5831 5831 5831 5832 5832 5833 5833 5833 5833 5833 5834 5834 5834
5822 5823 5824 5824 5826 5825 5825 5825 5825 5825 5825 5826 5826 5829 5826 5825 5825 5824 5824 5824 5823 5824 5824 5824 5824 5825 5825 5825 5826 5826 5826 5826 5827 5827 5828 5828 5829 5829 5829 5830 5830 5830 5830 5831
5817 5818 5820 5821 5819 5819 5820 5820 5820 5820 5820 5820 5821 5822 5821 5820 5819 5819 5819 5818 5819 5819 5819 5819 5820 5820 5820 5821 5821 5821 5822 5822 5822 5823 5823 5824 5824 5825 5825 5826 5826 5826 5827 5827
5812 5813 5813 5814 5814 5814 5814 5815 5815 5815 5814 5815 5815 5815 5815 5814 5813 5813 5813 5813 5813 5814 5814 5814 5815 5815 5814 5815 5816 5816 5816 5817 5817 5818 5819 5819 5820 5820 5821 5821 5822 5822 5823 5823
5806 5807 5808 5808 5808 5808 5808 5809 5809 5809 5809 5809 5809 5810 5809 5808 5808 5808 5808 5808 5808 5808 5809 5809 5809 5809 5809 5810 5810 5811 5811 5812 5812 5813 5814 5814 5815 5816 5816 5817 5817 5818 5818 5818
5801 5801 5801 5802 5802 5801 5802 5804 5803 5803 5803 5803 5803 5804 5803 5802 5802 5802 5802 5802 5803 5803 5803 5804 5804 5804 5803 5804 5805 5805 5806 5806 5807 5807 5808 5809 5809 5810 5811 5812 5812 5813 5813 5813
5795 5795 5795 5795 5796 5795 5799 5797 5797 5796 5796 5796 5796 5796 5796 5796 5796 5796 5796 5796 5796 5797 5797 5798 5798 5798 5797 5798 5799 5799 5799 5800 5800 5801 5802 5803 5803 5804 5806 5806 5807 5807 5807 5808
5789 5789 5788 5788 5788 5788 5791 5790 5790 5789 5790 5790 5789 5789 5789 5789 5789 5789 5789 5790 5789 5790 5791 5791 5791 5791 5791 5792 5792 5793 5793 5793 5794 5794 5795 5796 5797 5798 5799 5800 5801 5801 5802 5802
5783 5783 5783 5782 5781 5781 5784 5783 5782 5782 5782 5783 5782 5781 5781 5781 5781 5782 5782 5782 5782 5783 5784 5784 5784 5784 5784 5785 5785 5786 5786 5786 5787 5787 5788 5789 5790 5791 5792 5793 5794 5795 5795 5796
5776 5775 5775 5775 5773 5774 5776 5775 5775 5776 5776 5774 5773 5773 5773 5773 5773 5774 5774 5774 5774 5775 5776 5776 5776 5776 5776 5776 5777 5778 5778 5779 5779 5780 5780 5781 5782 5783 5785 5786 5787 5788 5789 5790
5769 5768 5768 5767 5766 5768 5767 5766 5766 5766 5766 5765 5764 5764 5765 5765 5765 5765 5766 5766 5766 5767 5768 5768 5768 5768 5768 5768 5769 5770 5770 5771 5771 5772 5772 5773 5774 5775 5777 5778 5779 5780 5781 5783
5761 5761 5760 5760 5761 5760 5759 5757 5757 5757 5757 5756 5756 5756 5756 5756 5757 5757 5758 5758 5758 5759 5759 5759 5760 5760 5760 5760 5760 5761 5762 5762 5762 5763 5764 5765 5765 5767 5768 5770 5771 5772 5774 5775
5753 5753 5752 5751 5751 5751 5750 5749 5749 5748 5748 5748 5747 5747 5748 5748 5748 5748 5748 5749 5749 5750 5750 5750 5751 5751 5751 5751 5752 5752 5753 5753 5753 5754 5755 5756 5757 5758 5760 5761 5762 5764 5765 5766
5746 5744 5743 5742 5743 5742 5741 5740 5740 5739 5739 5739 5739 5739 5739 5739 5739 5739 5739 5739 5740 5740 5740 5740 5741 5742 5742 5743 5743 5743 5744 5744 5744 5745 5746 5747 5748 5749 5751 5752 5754 5755 5756 5757
5737 5735 5734 5734 5734 5733 5732 5731 5731 5730 5730 5730 5730 5730 5730 5729 5729 5729 5729 5729 5730 5730 5730 5731 5731 5732 5732 5733 5733 5734 5734 5734 5735 5736 5737 5738 5739 5740 5741 5743 5745 5746 5747 5748